| time (UTC) | temp C | wind direction | speed KPH | gust KPH | rain 1hr cm | rain 24hr cm | rain mn cm | humidity % | barometer mb |
| 20260506100057 | 17 | 188 | 3.2 | 8.0 | 0.00 | 0.00 | 0.00 | 84 | 1013.3 |
| 20260506095601 | 17 | 176 | 3.2 | 12.9 | 0.00 | 0.00 | 0.00 | 84 | 1013.4 |
| 20260506095050 | 17 | 172 | 4.8 | 12.9 | 0.00 | 0.00 | 0.00 | 84 | 1013.5 |
| 20260506094556 | 17 | 167 | 3.2 | 12.9 | 0.00 | 0.00 | 0.00 | 84 | 1013.6 |
| 20260506094048 | 17 | 175 | 4.8 | 12.9 | 0.00 | 0.00 | 0.00 | 83 | 1013.5 |
| 20260506093102 | 17 | 177 | 3.2 | 8.0 | 0.00 | 0.00 | 0.00 | 82 | 1013.4 |
| 20260506092548 | 17 | 232 | 3.2 | 8.0 | 0.00 | 0.00 | 0.00 | 82 | 1013.3 |
| 20260506092056 | 17 | 190 | 1.6 | 6.4 | 0.00 | 0.00 | 0.00 | 81 | 1013.2 |
| 20260506091055 | 18 | 195 | 1.6 | 3.2 | 0.00 | 0.00 | 0.00 | 81 | 1013.2 |
| 20260506090606 | 18 | 203 | 1.6 | 3.2 | 0.00 | 0.00 | 0.00 | 81 | 1013.1 |
| 20260506085602 | 18 | 172 | 0.0 | 4.8 | 0.00 | 0.00 | 0.00 | 80 | 1013.2 |
| 20260506085050 | 18 | 172 | 1.6 | 4.8 | 0.00 | 0.00 | 0.00 | 80 | 1013.2 |
| 20260506084047 | 18 | 189 | 1.6 | 6.4 | 0.00 | 0.00 | 0.00 | 79 | 1013.2 |
| 20260506083558 | 18 | 180 | 3.2 | 6.4 | 0.00 | 0.00 | 0.00 | 79 | 1013.2 |
| 20260506083046 | 18 | 200 | 1.6 | 6.4 | 0.00 | 0.00 | 0.00 | 79 | 1013.3 |
| 20260506082554 | 18 | 108 | 0.0 | 9.7 | 0.00 | 0.00 | 0.00 | 78 | 1013.2 |
| 20260506082059 | 18 | 179 | 3.2 | 9.7 | 0.00 | 0.00 | 0.00 | 78 | 1013.3 |
| 20260506081548 | 18 | 186 | 3.2 | 6.4 | 0.00 | 0.00 | 0.00 | 77 | 1013.2 |
| 20260506081056 | 18 | 170 | 3.2 | 6.4 | 0.00 | 0.00 | 0.00 | 77 | 1013.3 |
| 20260506073049 | 17 | 165 | 0.0 | 0.0 | 0.00 | 0.00 | 0.00 | 73 | 1013.5 |
| 20260506072047 | 17 | 188 | 0.0 | 3.2 | 0.00 | 0.00 | 0.00 | 73 | 1013.8 |
| 20260506071101 | 17 | 188 | 0.0 | 1.6 | 0.00 | 0.00 | 0.00 | 71 | 1014.0 |
| 20260506062052 | 18 | 188 | 0.0 | 3.2 | 0.00 | 0.00 | 0.00 | 65 | 1014.1 |
| 20260506061556 | 18 | 188 | 0.0 | 3.2 | 0.00 | 0.00 | 0.00 | 65 | 1014.1 |
| 20260506061047 | 18 | 188 | 0.0 | 4.8 | 0.00 | 0.00 | 0.00 | 64 | 1014.1 |
| 20260506060557 | 19 | 188 | 1.6 | 8.0 | 0.00 | 0.00 | 0.00 | 64 | 1014.1 |
| 20260506060107 | 19 | 190 | 3.2 | 8.0 | 0.00 | 0.00 | 0.00 | 63 | 1014.1 |
| 20260506051054 | 20 | 180 | 3.2 | 6.4 | 0.00 | 0.00 | 0.00 | 58 | 1013.7 |
| 20260506050545 | 20 | 200 | 3.2 | 6.4 | 0.00 | 0.00 | 0.00 | 57 | 1013.8 |
| 20260506050111 | 20 | 162 | 1.6 | 11.3 | 0.00 | 0.00 | 0.00 | 57 | 1013.8 |
| 20260506045046 | 20 | 182 | 0.0 | 6.4 | 0.00 | 0.00 | 0.00 | 56 | 1014.0 |
| 20260506044558 | 20 | 180 | 3.2 | 6.4 | 0.00 | 0.00 | 0.00 | 56 | 1014.2 |
| 20260506044047 | 20 | 169 | 0.0 | 6.4 | 0.00 | 0.00 | 0.00 | 55 | 1014.1 |
| 20260506043600 | 20 | 187 | 1.6 | 6.4 | 0.00 | 0.00 | 0.00 | 54 | 1014.1 |
| 20260506043051 | 20 | 175 | 1.6 | 6.4 | 0.00 | 0.00 | 0.00 | 54 | 1014.0 |
| 20260506042046 | 21 | 200 | 1.6 | 6.4 | 0.00 | 0.00 | 0.00 | 53 | 1013.9 |
| 20260506041559 | 21 | 84 | 1.6 | 6.4 | 0.00 | 0.00 | 0.00 | 52 | 1013.8 |
| 20260506041046 | 21 | 95 | 3.2 | 6.4 | 0.00 | 0.00 | 0.00 | 52 | 1013.7 |
| 20260506040557 | 20 | 125 | 1.6 | 6.4 | 0.00 | 0.00 | 0.00 | 52 | 1013.8 |
| 20260506040119 | 20 | 180 | 1.6 | 6.4 | 0.00 | 0.00 | 0.00 | 52 | 1013.8 |
| 20260506035558 | 20 | 166 | 1.6 | 8.0 | 0.00 | 0.00 | 0.00 | 53 | 1013.7 |
| 20260506035047 | 20 | 113 | 3.2 | 6.4 | 0.00 | 0.00 | 0.00 | 53 | 1014.0 |
| 20260506033603 | 20 | 163 | 0.0 | 3.2 | 0.00 | 0.00 | 0.00 | 55 | 1014.2 |
| 20260506033052 | 20 | 163 | 0.0 | 3.2 | 0.00 | 0.00 | 0.00 | 54 | 1014.1 |
| 20260506032557 | 20 | 163 | 0.0 | 4.8 | 0.00 | 0.00 | 0.00 | 55 | 1014.2 |
| 20260506032047 | 20 | 163 | 1.6 | 4.8 | 0.00 | 0.00 | 0.00 | 54 | 1014.2 |
| 20260506031103 | 20 | 158 | 0.0 | 0.0 | 0.00 | 0.00 | 0.00 | 54 | 1014.0 |
| 20260506030549 | 20 | 157 | 0.0 | 0.0 | 0.00 | 0.00 | 0.00 | 53 | 1014.1 |
| 20260506030503 | 20 | 158 | 0.0 | 0.0 | 0.00 | 0.00 | 0.00 | 53 | 1013.2 |
| 20260506030129 | 20 | 158 | 0.0 | 1.6 | 0.00 | 0.00 | 0.00 | 53 | 1014.0 |
| 20260506030023 | 20 | 158 | 0.0 | 1.6 | 0.00 | 0.00 | 0.00 | 53 | 1013.1 |
| 20260506025547 | 21 | 158 | 0.0 | 1.6 | 0.00 | 0.00 | 0.00 | 52 | 1014.0 |
| 20260506025059 | 21 | 157 | 0.0 | 1.6 | 0.00 | 0.00 | 0.00 | 52 | 1014.1 |
| 20260506024553 | 21 | 158 | 1.6 | 3.2 | 0.00 | 0.00 | 0.00 | 51 | 1014.0 |
| 20260506023551 | 21 | 211 | 1.6 | 4.8 | 0.00 | 0.00 | 0.00 | 52 | 1014.0 |
| 20260506023100 | 21 | 158 | 1.6 | 6.4 | 0.00 | 0.00 | 0.00 | 51 | 1014.0 |
| 20260506022546 | 21 | 158 | 1.6 | 6.4 | 0.00 | 0.00 | 0.00 | 52 | 1014.0 |
| 20260506022054 | 21 | 186 | 1.6 | 6.4 | 0.00 | 0.00 | 0.00 | 51 | 1014.1 |
| 20260506021603 | 21 | 192 | 1.6 | 4.8 | 0.00 | 0.00 | 0.00 | 51 | 1014.1 |
| 20260506021052 | 21 | 180 | 1.6 | 6.4 | 0.00 | 0.00 | 0.00 | 51 | 1014.1 |
| 20260506020557 | 21 | 153 | 1.6 | 6.4 | 0.00 | 0.00 | 0.00 | 51 | 1013.9 |
| 20260506020047 | 21 | 169 | 1.6 | 6.4 | 0.00 | 0.00 | 0.00 | 51 | 1014.0 |
| 20260506015104 | 21 | 155 | 0.0 | 4.8 | 0.00 | 0.00 | 0.00 | 51 | 1013.9 |
| 20260506014549 | 21 | 155 | 1.6 | 4.8 | 0.00 | 0.00 | 0.00 | 51 | 1013.7 |
| 20260506014058 | 21 | 144 | 1.6 | 4.8 | 0.00 | 0.00 | 0.00 | 52 | 1013.8 |
| 20260506013546 | 21 | 188 | 0.0 | 0.0 | 0.00 | 0.00 | 0.00 | 52 | 1013.9 |
| 20260506013055 | 21 | 188 | 0.0 | 0.0 | 0.00 | 0.00 | 0.00 | 53 | 1013.9 |
| 20260506012559 | 21 | 188 | 0.0 | 0.0 | 0.00 | 0.00 | 0.00 | 53 | 1013.9 |
| 20260506012045 | 21 | 188 | 0.0 | 0.0 | 0.00 | 0.00 | 0.00 | 53 | 1013.8 |
| 20260506011557 | 21 | 188 | 0.0 | 0.0 | 0.00 | 0.00 | 0.00 | 52 | 1013.7 |
| 20260506011103 | 21 | 188 | 0.0 | 0.0 | 0.00 | 0.00 | 0.00 | 52 | 1013.6 |
| 20260506010551 | 21 | 188 | 0.0 | 0.0 | 0.00 | 0.00 | 0.00 | 51 | 1013.7 |
| 20260506010054 | 22 | 188 | 0.0 | 0.0 | 0.00 | 0.00 | 0.00 | 51 | 1013.7 |
| 20260506005600 | 22 | 188 | 0.0 | 0.0 | 0.00 | 0.00 | 0.00 | 51 | 1013.8 |
| 20260506005049 | 22 | 188 | 0.0 | 0.0 | 0.00 | 0.00 | 0.00 | 50 | 1013.8 |
| 20260506004050 | 22 | 188 | 0.0 | 0.0 | 0.00 | 0.00 | 0.00 | 49 | 1013.9 |
| 20260506003106 | 23 | 188 | 0.0 | 3.2 | 0.00 | 0.00 | 0.00 | 47 | 1013.9 |
| 20260506002547 | 23 | 188 | 0.0 | 4.8 | 0.00 | 0.00 | 0.00 | 46 | 1013.8 |
| 20260506000555 | 23 | 162 | 3.2 | 8.0 | 0.00 | 0.00 | 0.00 | 44 | 1013.7 |
| 20260505235550 | 23 | 146 | 4.8 | 8.0 | 0.00 | 0.00 | 0.00 | 44 | 1013.5 |
| 20260505234552 | 24 | 199 | 3.2 | 11.3 | 0.00 | 0.00 | 0.00 | 44 | 1013.6 |
| 20260505234103 | 24 | 183 | 1.6 | 4.8 | 0.00 | 0.00 | 0.00 | 43 | 1013.7 |
| 20260505233550 | 24 | 154 | 1.6 | 9.7 | 0.00 | 0.00 | 0.00 | 43 | 1013.7 |
| 20260505233059 | 24 | 178 | 3.2 | 9.7 | 0.00 | 0.00 | 0.00 | 43 | 1013.7 |
| 20260505232603 | 24 | 161 | 3.2 | 8.0 | 0.00 | 0.00 | 0.00 | 43 | 1013.7 |
| 20260505232051 | 25 | 165 | 1.6 | 12.9 | 0.00 | 0.00 | 0.00 | 43 | 1013.5 |
| 20260505231557 | 25 | 197 | 6.4 | 14.5 | 0.00 | 0.00 | 0.00 | 42 | 1013.5 |
| 20260505231048 | 25 | 245 | 6.4 | 14.5 | 0.00 | 0.00 | 0.00 | 42 | 1013.3 |
| 20260505230555 | 25 | 184 | 4.8 | 11.3 | 0.00 | 0.00 | 0.00 | 41 | 1013.4 |
| 20260505230106 | 25 | 199 | 3.2 | 12.9 | 0.00 | 0.00 | 0.00 | 40 | 1013.3 |
| 20260505225551 | 25 | 199 | 6.4 | 12.9 | 0.00 | 0.00 | 0.00 | 40 | 1013.4 |
| 20260505225041 | 25 | 231 | 4.8 | 12.9 | 0.00 | 0.00 | 0.00 | 40 | 1013.3 |
| 20260505224554 | 25 | 172 | 4.8 | 12.9 | 0.00 | 0.00 | 0.00 | 40 | 1013.3 |
| 20260505224041 | 25 | 158 | 4.8 | 12.9 | 0.00 | 0.00 | 0.00 | 39 | 1013.3 |
| 20260505223551 | 25 | 216 | 6.4 | 12.9 | 0.00 | 0.00 | 0.00 | 39 | 1013.3 |
| 20260505222551 | 25 | 164 | 6.4 | 20.9 | 0.00 | 0.00 | 0.00 | 40 | 1013.1 |
| 20260505222058 | 25 | 188 | 8.0 | 20.9 | 0.00 | 0.00 | 0.00 | 40 | 1013.1 |
| 20260505221548 | 26 | 187 | 4.8 | 14.5 | 0.00 | 0.00 | 0.00 | 40 | 1013.1 |
| 20260505221058 | 26 | 117 | 8.0 | 12.9 | 0.00 | 0.00 | 0.00 | 39 | 1013.1 |
| 20260505220547 | 26 | 205 | 4.8 | 12.9 | 0.00 | 0.00 | 0.00 | 39 | 1013.0 |
| 20260505220056 | 26 | 65 | 6.4 | 12.9 | 0.00 | 0.00 | 0.00 | 37 | 1013.1 |
| 20260505215054 | 26 | 160 | 4.8 | 14.5 | 0.00 | 0.00 | 0.00 | 38 | 1013.2 |
| 20260505214602 | 26 | 203 | 4.8 | 16.1 | 0.00 | 0.00 | 0.00 | 39 | 1013.3 |
| 20260505214051 | 26 | 86 | 4.8 | 9.7 | 0.00 | 0.00 | 0.00 | 38 | 1013.3 |
| 20260505213558 | 26 | 157 | 3.2 | 12.9 | 0.00 | 0.00 | 0.00 | 38 | 1013.4 |
| 20260505213102 | 26 | 165 | 4.8 | 16.1 | 0.00 | 0.00 | 0.00 | 38 | 1013.2 |
| 20260505212102 | 26 | 156 | 4.8 | 11.3 | 0.00 | 0.00 | 0.00 | 40 | 1013.2 |
| 20260505211550 | 26 | 177 | 4.8 | 14.5 | 0.00 | 0.00 | 0.00 | 41 | 1013.4 |
| 20260505211057 | 26 | 139 | 8.0 | 14.5 | 0.00 | 0.00 | 0.00 | 41 | 1013.5 |
| 20260505210548 | 26 | 204 | 4.8 | 14.5 | 0.00 | 0.00 | 0.00 | 40 | 1013.4 |
| 20260505210125 | 26 | 129 | 3.2 | 14.5 | 0.00 | 0.00 | 0.00 | 40 | 1013.4 |
| 20260505210018 | 25 | 106 | 1.6 | 14.5 | 0.00 | 0.00 | 0.00 | 40 | 1012.5 |
| 20260505205547 | 26 | 174 | 6.4 | 12.9 | 0.00 | 0.00 | 0.00 | 41 | 1013.5 |
| 20260505205056 | 26 | 174 | 4.8 | 9.7 | 0.00 | 0.00 | 0.00 | 40 | 1013.5 |
| 20260505204544 | 26 | 176 | 3.2 | 16.1 | 0.00 | 0.00 | 0.00 | 41 | 1013.7 |
| 20260505204056 | 26 | 155 | 3.2 | 16.1 | 0.00 | 0.00 | 0.00 | 41 | 1013.8 |
| 20260505203052 | 26 | 162 | 6.4 | 12.9 | 0.00 | 0.00 | 0.00 | 42 | 1014.0 |
| 20260505202556 | 26 | 198 | 8.0 | 16.1 | 0.00 | 0.00 | 0.00 | 41 | 1014.0 |
| 20260505202047 | 25 | 181 | 4.8 | 19.3 | 0.00 | 0.00 | 0.00 | 40 | 1014.0 |
| 20260505201555 | 25 | 259 | 8.0 | 19.3 | 0.00 | 0.00 | 0.00 | 41 | 1014.1 |
| 20260505201101 | 25 | 215 | 6.4 | 12.9 | 0.00 | 0.00 | 0.00 | 41 | 1014.1 |
| 20260505200547 | 25 | 169 | 4.8 | 11.3 | 0.00 | 0.00 | 0.00 | 41 | 1014.1 |
| 20260505200057 | 25 | 169 | 4.8 | 16.1 | 0.00 | 0.00 | 0.00 | 41 | 1014.2 |
| 20260505195601 | 25 | 206 | 8.0 | 16.1 | 0.00 | 0.00 | 0.00 | 40 | 1014.3 |
| 20260505195050 | 25 | 165 | 4.8 | 19.3 | 0.00 | 0.00 | 0.00 | 40 | 1014.4 |
| 20260505194602 | 25 | 195 | 6.4 | 19.3 | 0.00 | 0.00 | 0.00 | 40 | 1014.6 |
| 20260505194054 | 25 | 248 | 6.4 | 12.9 | 0.00 | 0.00 | 0.00 | 44 | 1014.6 |
| 20260505193600 | 25 | 151 | 4.8 | 14.5 | 0.00 | 0.00 | 0.00 | 43 | 1014.6 |
| 20260505193050 | 25 | 156 | 8.0 | 14.5 | 0.00 | 0.00 | 0.00 | 43 | 1014.6 |
| 20260505192554 | 25 | 183 | 4.8 | 14.5 | 0.00 | 0.00 | 0.00 | 42 | 1014.6 |
| 20260505191551 | 25 | 228 | 6.4 | 11.3 | 0.00 | 0.00 | 0.00 | 43 | 1014.7 |
| 20260505191058 | 25 | 198 | 1.6 | 14.5 | 0.00 | 0.00 | 0.00 | 44 | 1014.6 |
| 20260505190606 | 25 | 182 | 4.8 | 14.5 | 0.00 | 0.00 | 0.00 | 44 | 1014.9 |
| 20260505190047 | 25 | 127 | 6.4 | 14.5 | 0.00 | 0.00 | 0.00 | 42 | 1015.0 |
| 20260505185554 | 25 | 181 | 4.8 | 12.9 | 0.00 | 0.00 | 0.00 | 44 | 1014.9 |
| 20260505185103 | 25 | 78 | 3.2 | 12.9 | 0.00 | 0.00 | 0.00 | 45 | 1015.1 |
| 20260505184103 | 24 | 236 | 4.8 | 16.1 | 0.00 | 0.00 | 0.00 | 45 | 1015.2 |
| 20260505183552 | 24 | 190 | 1.6 | 12.9 | 0.00 | 0.00 | 0.00 | 46 | 1015.2 |
| 20260505182055 | 25 | 263 | 4.8 | 16.1 | 0.00 | 0.00 | 0.00 | 43 | 1015.4 |
| 20260505181606 | 25 | 184 | 6.4 | 16.1 | 0.00 | 0.00 | 0.00 | 45 | 1015.6 |
| 20260505181502 | 25 | 203 | 4.8 | 16.1 | 0.00 | 0.00 | 0.00 | 45 | 1014.8 |
| 20260505180602 | 25 | 175 | 8.0 | 14.5 | 0.00 | 0.00 | 0.00 | 44 | 1015.9 |
| 20260505180050 | 24 | 173 | 6.4 | 14.5 | 0.00 | 0.00 | 0.00 | 44 | 1015.9 |
| 20260505175550 | 24 | 203 | 4.8 | 14.5 | 0.00 | 0.00 | 0.00 | 45 | 1016.1 |
| 20260505175059 | 24 | 227 | 6.4 | 14.5 | 0.00 | 0.00 | 0.00 | 45 | 1016.2 |
| 20260505174547 | 24 | 139 | 6.4 | 12.9 | 0.00 | 0.00 | 0.00 | 46 | 1016.3 |
| 20260505174058 | 24 | 170 | 4.8 | 12.9 | 0.00 | 0.00 | 0.00 | 45 | 1016.4 |
| 20260505173548 | 24 | 112 | 8.0 | 14.5 | 0.00 | 0.00 | 0.00 | 44 | 1016.3 |
| 20260505173058 | 24 | 198 | 6.4 | 17.7 | 0.00 | 0.00 | 0.00 | 45 | 1016.3 |
| 20260505172544 | 24 | 212 | 8.0 | 17.7 | 0.00 | 0.00 | 0.00 | 43 | 1016.3 |
| 20260505171604 | 23 | 210 | 8.0 | 16.1 | 0.00 | 0.00 | 0.00 | 45 | 1016.3 |
| 20260505171055 | 23 | 240 | 4.8 | 17.7 | 0.00 | 0.00 | 0.00 | 48 | 1016.3 |
| 20260505170600 | 23 | 165 | 8.0 | 17.7 | 0.00 | 0.00 | 0.00 | 45 | 1016.4 |
| 20260505170119 | 24 | 117 | 6.4 | 17.7 | 0.00 | 0.00 | 0.00 | 47 | 1016.5 |
| 20260505165601 | 24 | 202 | 6.4 | 19.3 | 0.00 | 0.00 | 0.00 | 48 | 1016.5 |
| 20260505165053 | 24 | 236 | 6.4 | 19.3 | 0.00 | 0.00 | 0.00 | 47 | 1016.4 |
| 20260505164544 | 24 | 225 | 6.4 | 16.1 | 0.00 | 0.00 | 0.00 | 47 | 1016.4 |
| 20260505164052 | 23 | 186 | 3.2 | 17.7 | 0.00 | 0.00 | 0.00 | 49 | 1016.4 |
| 20260505163544 | 23 | 171 | 4.8 | 20.9 | 0.00 | 0.00 | 0.00 | 47 | 1016.4 |
| 20260505163055 | 23 | 237 | 6.4 | 20.9 | 0.00 | 0.00 | 0.00 | 48 | 1016.5 |
| 20260505162601 | 23 | 217 | 6.4 | 17.7 | 0.00 | 0.00 | 0.00 | 49 | 1016.4 |
| 20260505162050 | 23 | 185 | 4.8 | 14.5 | 0.00 | 0.00 | 0.00 | 50 | 1016.5 |
| 20260505161055 | 23 | 115 | 8.0 | 16.1 | 0.00 | 0.00 | 0.00 | 48 | 1016.6 |
| 20260505160549 | 23 | 113 | 6.4 | 12.9 | 0.00 | 0.00 | 0.00 | 52 | 1016.6 |
| 20260505153059 | 22 | 158 | 6.4 | 16.1 | 0.00 | 0.00 | 0.00 | 53 | 1017.1 |
| 20260505152546 | 22 | 224 | 8.0 | 12.9 | 0.00 | 0.00 | 0.00 | 56 | 1017.0 |
| 20260505151544 | 22 | 88 | 3.2 | 12.9 | 0.00 | 0.00 | 0.00 | 57 | 1016.9 |
| 20260505151054 | 22 | 151 | 4.8 | 14.5 | 0.00 | 0.00 | 0.00 | 57 | 1016.9 |
| 20260505150544 | 21 | 207 | 6.4 | 14.5 | 0.00 | 0.00 | 0.00 | 58 | 1016.9 |
| 20260505124602 | 13 | 30 | 0.0 | 1.6 | 0.00 | 0.00 | 0.00 | 84 | 1015.8 |
| 20260505123600 | 13 | 30 | 0.0 | 0.0 | 0.00 | 0.00 | 0.00 | 84 | 1015.6 |
| 20260505123104 | 13 | 30 | 0.0 | 0.0 | 0.00 | 0.00 | 0.00 | 85 | 1015.6 |
| 20260505122552 | 13 | 30 | 0.0 | 0.0 | 0.00 | 0.00 | 0.00 | 85 | 1015.6 |
| 20260505122103 | 12 | 30 | 0.0 | 1.6 | 0.00 | 0.00 | 0.00 | 85 | 1015.6 |
| 20260505121550 | 12 | 30 | 0.0 | 1.6 | 0.00 | 0.00 | 0.00 | 85 | 1015.8 |
| 20260505121057 | 12 | 149 | 0.0 | 1.6 | 0.00 | 0.00 | 0.00 | 86 | 1015.8 |
| 20260505120543 | 12 | 149 | 0.0 | 0.0 | 0.00 | 0.00 | 0.00 | 86 | 1015.7 |
| 20260505120053 | 11 | 149 | 0.0 | 0.0 | 0.00 | 0.00 | 0.00 | 86 | 1015.5 |
| 20260505115555 | 11 | 149 | 0.0 | 0.0 | 0.00 | 0.00 | 0.00 | 86 | 1015.5 |
| 20260505115102 | 11 | 149 | 0.0 | 0.0 | 0.00 | 0.00 | 0.00 | 86 | 1015.4 |
| 20260505114550 | 11 | 149 | 0.0 | 0.0 | 0.00 | 0.00 | 0.00 | 86 | 1015.2 |
| 20260505114059 | 11 | 149 | 0.0 | 0.0 | 0.00 | 0.00 | 0.00 | 86 | 1015.1 |
| 20260505113103 | 11 | 149 | 0.0 | 0.0 | 0.00 | 0.00 | 0.00 | 86 | 1015.1 |
| 20260505112550 | 10 | 149 | 0.0 | 0.0 | 0.00 | 0.00 | 0.00 | 86 | 1015.1 |
| 20260505111546 | 10 | 149 | 0.0 | 0.0 | 0.00 | 0.00 | 0.00 | 86 | 1015.2 |
| 20260505111057 | 10 | 149 | 0.0 | 1.6 | 0.00 | 0.00 | 0.00 | 87 | 1015.1 |
| 20260505110603 | 10 | 149 | 0.0 | 1.6 | 0.00 | 0.00 | 0.00 | 87 | 1015.1 |
| 20260505110517 | 10 | 149 | 0.0 | 1.6 | 0.00 | 0.00 | 0.00 | 87 | 1014.5 |
| 20260505110123 | 10 | 149 | 0.0 | 0.0 | 0.00 | 0.00 | 0.00 | 87 | 1015.2 |
| 20260505102056 | 10 | 149 | 0.0 | 1.6 | 0.00 | 0.00 | 0.00 | 85 | 1015.1 |
| 20260505101549 | 10 | 149 | 0.0 | 0.0 | 0.00 | 0.00 | 0.00 | 84 | 1015.0 |
| 20260505101059 | 10 | 149 | 0.0 | 0.0 | 0.00 | 0.00 | 0.00 | 84 | 1015.0 |
| 20260505100549 | 10 | 149 | 0.0 | 3.2 | 0.00 | 0.00 | 0.00 | 84 | 1015.1 |